| time (UTC) | temp C | wind direction | speed KPH | gust KPH | rain 1hr cm | rain 24hr cm | rain mn cm | humidity % | barometer mb |
| 20260510141528 | 9 | 146 | 0.0 | 3.2 | 0.00 | 0.00 | 0.00 | 62 | 1018.0 |
| 20260510140024 | 8 | 68 | 0.0 | 3.2 | 0.00 | 0.00 | 0.00 | 64 | 1018.0 |
| 20260510134527 | 7 | 223 | 3.2 | 4.8 | 0.00 | 0.00 | 0.00 | 68 | 1018.0 |
| 20260510133027 | 6 | 125 | 0.0 | 0.0 | 0.00 | 0.00 | 0.00 | 70 | 1018.2 |
| 20260510131528 | 5 | 125 | 0.0 | 0.0 | 0.00 | 0.00 | 0.00 | 71 | 1018.2 |
| 20260510130038 | 4 | 125 | 0.0 | 3.2 | 0.00 | 0.00 | 0.00 | 73 | 1018.2 |
| 20260510124528 | 3 | 125 | 0.0 | 3.2 | 0.00 | 0.00 | 0.00 | 72 | 1018.3 |
| 20260510123028 | 3 | 125 | 0.0 | 3.2 | 0.00 | 0.00 | 0.00 | 70 | 1018.3 |
| 20260510121532 | 2 | 125 | 0.0 | 1.6 | 0.00 | 0.00 | 0.00 | 71 | 1018.4 |
| 20260510120026 | 3 | 127 | 0.0 | 3.2 | 0.00 | 0.00 | 0.00 | 73 | 1018.4 |
| 20260510114523 | 3 | 302 | 0.0 | 3.2 | 0.00 | 0.00 | 0.00 | 73 | 1018.4 |
| 20260510113025 | 3 | 302 | 0.0 | 3.2 | 0.00 | 0.00 | 0.00 | 72 | 1018.5 |
| 20260510111528 | 3 | 302 | 0.0 | 3.2 | 0.00 | 0.00 | 0.00 | 74 | 1018.5 |
| 20260510110034 | 3 | 302 | 0.0 | 3.2 | 0.00 | 0.00 | 0.00 | 70 | 1018.7 |
| 20260510104521 | 3 | 302 | 0.0 | 3.2 | 0.00 | 0.00 | 0.00 | 69 | 1018.7 |
| 20260510103025 | 4 | 302 | 0.0 | 1.6 | 0.00 | 0.00 | 0.00 | 71 | 1018.8 |
| 20260510101533 | 4 | 302 | 0.0 | 3.2 | 0.00 | 0.00 | 0.00 | 76 | 1018.9 |
| 20260510100021 | 4 | 302 | 0.0 | 3.2 | 0.00 | 0.00 | 0.00 | 73 | 1018.9 |
| 20260510094523 | 5 | 302 | 0.0 | 0.0 | 0.00 | 0.00 | 0.00 | 71 | 1018.9 |
| 20260510093024 | 5 | 302 | 0.0 | 0.0 | 0.00 | 0.00 | 0.00 | 69 | 1018.9 |
| 20260510091533 | 6 | 302 | 0.0 | 0.0 | 0.00 | 0.00 | 0.00 | 67 | 1018.9 |
| 20260510090030 | 6 | 302 | 0.0 | 3.2 | 0.00 | 0.00 | 0.00 | 73 | 1018.9 |
| 20260510084518 | 6 | 302 | 0.0 | 3.2 | 0.00 | 0.00 | 0.00 | 65 | 1018.9 |
| 20260510083026 | 6 | 302 | 0.0 | 3.2 | 0.00 | 0.00 | 0.00 | 62 | 1018.9 |
| 20260510081508 | 7 | 44 | 0.0 | 3.2 | 0.00 | 0.00 | 0.00 | 62 | 1018.9 |
| 20260510080010 | 7 | 44 | 0.0 | 3.2 | 0.00 | 0.00 | 0.00 | 64 | 1019.1 |
| 20260510074518 | 8 | 160 | 0.0 | 3.2 | 0.00 | 0.00 | 0.00 | 64 | 1019.0 |
| 20260510073022 | 8 | 160 | 0.0 | 3.2 | 0.00 | 0.00 | 0.00 | 61 | 1019.0 |
| 20260510071506 | 9 | 160 | 0.0 | 3.2 | 0.00 | 0.00 | 0.00 | 60 | 1019.0 |
| 20260510070015 | 10 | 160 | 0.0 | 3.2 | 0.00 | 0.00 | 0.00 | 55 | 1019.0 |
| 20260510064528 | 10 | 154 | 1.6 | 3.2 | 0.00 | 0.00 | 0.00 | 58 | 1019.1 |
| 20260510063018 | 10 | 85 | 1.6 | 4.8 | 0.00 | 0.00 | 0.00 | 54 | 1019.2 |
| 20260510061524 | 10 | 117 | 0.0 | 3.2 | 0.00 | 0.00 | 0.00 | 52 | 1018.9 |
| 20260510060010 | 11 | 69 | 0.0 | 3.2 | 0.00 | 0.00 | 0.00 | 52 | 1019.0 |
| 20260510054512 | 12 | 69 | 0.0 | 3.2 | 0.00 | 0.00 | 0.00 | 50 | 1019.0 |
| 20260510053023 | 12 | 46 | 0.0 | 6.4 | 0.00 | 0.00 | 0.00 | 51 | 1019.0 |
| 20260510051522 | 12 | 324 | 0.0 | 0.0 | 0.00 | 0.00 | 0.00 | 47 | 1018.9 |
| 20260510050024 | 13 | 324 | 0.0 | 3.2 | 0.00 | 0.00 | 0.00 | 45 | 1018.9 |
| 20260510044516 | 13 | 324 | 0.0 | 3.2 | 0.00 | 0.00 | 0.00 | 44 | 1019.1 |
| 20260510043017 | 13 | 324 | 0.0 | 3.2 | 0.00 | 0.00 | 0.00 | 44 | 1019.0 |
| 20260510041520 | 13 | 324 | 0.0 | 3.2 | 0.00 | 0.00 | 0.00 | 45 | 1018.9 |
| 20260510040026 | 13 | 324 | 0.0 | 0.0 | 0.00 | 0.00 | 0.00 | 43 | 1018.8 |
| 20260510034528 | 14 | 324 | 0.0 | 3.2 | 0.00 | 0.00 | 0.00 | 43 | 1018.6 |
| 20260510033019 | 15 | 324 | 0.0 | 0.0 | 0.00 | 0.00 | 0.00 | 42 | 1018.4 |
| 20260510031517 | 16 | 324 | 0.0 | 0.0 | 0.00 | 0.00 | 0.00 | 39 | 1018.3 |
| 20260510030026 | 16 | 324 | 0.0 | 3.2 | 0.00 | 0.00 | 0.00 | 39 | 1018.2 |
| 20260510024527 | 17 | 324 | 0.0 | 0.0 | 0.00 | 0.00 | 0.00 | 37 | 1018.0 |
| 20260510023009 | 17 | 324 | 0.0 | 0.0 | 0.00 | 0.00 | 0.00 | 36 | 1017.9 |
| 20260510021518 | 18 | 324 | 0.0 | 3.2 | 0.00 | 0.00 | 0.00 | 35 | 1017.9 |
| 20260510020004 | 18 | 324 | 0.0 | 4.8 | 0.00 | 0.00 | 0.00 | 35 | 1017.8 |
| 20260510014507 | 19 | 32 | 0.0 | 4.8 | 0.00 | 0.00 | 0.00 | 34 | 1017.7 |
| 20260510013008 | 18 | 325 | 1.6 | 3.2 | 0.00 | 0.00 | 0.00 | 35 | 1017.7 |
| 20260510011511 | 18 | 262 | 0.0 | 4.8 | 0.00 | 0.00 | 0.00 | 36 | 1017.8 |
| 20260510010011 | 18 | 243 | 4.8 | 8.0 | 0.00 | 0.00 | 0.00 | 35 | 1017.8 |
| 20260510004503 | 18 | 265 | 9.7 | 11.3 | 0.00 | 0.00 | 0.00 | 35 | 1017.8 |
| 20260510003007 | 19 | 260 | 3.2 | 6.4 | 0.00 | 0.00 | 0.00 | 35 | 1017.7 |
| 20260510001514 | 18 | 283 | 3.2 | 11.3 | 0.00 | 0.00 | 0.00 | 36 | 1017.8 |
| 20260510000016 | 18 | 211 | 1.6 | 9.7 | 0.00 | 0.00 | 0.00 | 36 | 1017.8 |
| 20260509234515 | 18 | 247 | 3.2 | 9.7 | 0.00 | 0.00 | 0.00 | 37 | 1017.8 |
| 20260509233007 | 18 | 251 | 3.2 | 8.0 | 0.00 | 0.00 | 0.00 | 38 | 1017.8 |
| 20260509231516 | 18 | 231 | 1.6 | 9.7 | 0.00 | 0.00 | 0.00 | 37 | 1017.9 |
| 20260509230018 | 18 | 167 | 1.6 | 6.4 | 0.00 | 0.00 | 0.00 | 38 | 1018.0 |
| 20260509224530 | 18 | 204 | 0.0 | 8.0 | 0.00 | 0.00 | 0.00 | 39 | 1018.1 |
| 20260509223004 | 17 | 219 | 3.2 | 9.7 | 0.00 | 0.00 | 0.00 | 39 | 1018.2 |
| 20260509221510 | 17 | 169 | 1.6 | 8.0 | 0.00 | 0.00 | 0.00 | 39 | 1018.2 |
| 20260509220015 | 18 | 219 | 1.6 | 9.7 | 0.00 | 0.00 | 0.00 | 38 | 1018.3 |
| 20260509214518 | 18 | 252 | 4.8 | 11.3 | 0.00 | 0.00 | 0.00 | 37 | 1018.2 |
| 20260509213020 | 20 | 290 | 4.8 | 11.3 | 0.00 | 0.00 | 0.00 | 35 | 1018.3 |
| 20260509211509 | 18 | 229 | 4.8 | 11.3 | 0.00 | 0.00 | 0.00 | 38 | 1018.5 |
| 20260509210012 | 18 | 146 | 3.2 | 11.3 | 0.00 | 0.00 | 0.00 | 39 | 1018.6 |
| 20260509204520 | 18 | 200 | 4.8 | 12.9 | 0.00 | 0.00 | 0.00 | 39 | 1018.7 |
| 20260509203026 | 18 | 179 | 0.0 | 4.8 | 0.00 | 0.00 | 0.00 | 38 | 1018.6 |
| 20260509201524 | 18 | 242 | 3.2 | 17.7 | 0.00 | 0.00 | 0.00 | 38 | 1018.6 |
| 20260509200014 | 17 | 155 | 1.6 | 9.7 | 0.00 | 0.00 | 0.00 | 39 | 1018.5 |
| 20260509194521 | 17 | 176 | 3.2 | 9.7 | 0.00 | 0.00 | 0.00 | 39 | 1018.6 |
| 20260509193024 | 17 | 237 | 1.6 | 8.0 | 0.00 | 0.00 | 0.00 | 40 | 1018.7 |
| 20260509191525 | 16 | 79 | 0.0 | 6.4 | 0.00 | 0.00 | 0.00 | 41 | 1018.8 |
| 20260509190024 | 16 | 270 | 4.8 | 8.0 | 0.00 | 0.00 | 0.00 | 42 | 1019.0 |
| 20260509184523 | 16 | 316 | 0.0 | 4.8 | 0.00 | 0.00 | 0.00 | 42 | 1018.9 |
| 20260509183022 | 15 | 332 | 0.0 | 4.8 | 0.00 | 0.00 | 0.00 | 43 | 1019.0 |
| 20260509181523 | 15 | 17 | 0.0 | 4.8 | 0.00 | 0.00 | 0.00 | 44 | 1018.8 |
| 20260509180030 | 15 | 322 | 0.0 | 4.8 | 0.00 | 0.00 | 0.00 | 44 | 1018.8 |
| 20260509174514 | 15 | 2 | 1.6 | 6.4 | 0.00 | 0.00 | 0.00 | 44 | 1018.7 |
| 20260509173020 | 15 | 8 | 1.6 | 8.0 | 0.00 | 0.00 | 0.00 | 45 | 1018.6 |
| 20260509171504 | 15 | 290 | 3.2 | 4.8 | 0.00 | 0.00 | 0.00 | 45 | 1018.5 |
| 20260509170006 | 15 | 3 | 3.2 | 8.0 | 0.00 | 0.00 | 0.00 | 43 | 1018.4 |
| 20260509164511 | 16 | 186 | 1.6 | 9.7 | 0.00 | 0.00 | 0.00 | 41 | 1018.3 |
| 20260509163023 | 16 | 301 | 3.2 | 9.7 | 0.00 | 0.00 | 0.00 | 43 | 1018.2 |
| 20260509161504 | 15 | 251 | 4.8 | 9.7 | 0.00 | 0.00 | 0.00 | 46 | 1018.1 |
| 20260509160007 | 15 | 272 | 3.2 | 8.0 | 0.00 | 0.00 | 0.00 | 49 | 1018.0 |
| 20260509154516 | 15 | 347 | 1.6 | 11.3 | 0.00 | 0.00 | 0.00 | 49 | 1017.9 |
| 20260509153020 | 15 | 262 | 3.2 | 8.0 | 0.00 | 0.00 | 0.00 | 50 | 1017.8 |
| 20260509151519 | 15 | 328 | 3.2 | 8.0 | 0.00 | 0.00 | 0.00 | 53 | 1017.7 |
| 20260509150005 | 14 | 271 | 3.2 | 8.0 | 0.00 | 0.00 | 0.00 | 54 | 1017.6 |
| 20260509144514 | 13 | 331 | 3.2 | 8.0 | 0.00 | 0.00 | 0.00 | 53 | 1017.4 |
| 20260509143019 | 13 | 283 | 4.8 | 14.5 | 0.00 | 0.00 | 0.00 | 55 | 1017.3 |